Date String (YYYY-MM-DD hh:mm:ss) UTC,Instrument flags,Ambient pressure (hPa),Sample flow (lpm),Bypass flow (lpm),Sample temperature (°C),Ambient temperature (°C),ASC tube jacket temperature (°C),LED temperature (°C),Box temperature (°C),Sample RH (%),Span deviation,Mass concentration (μg/m³),Mass concentration (μg/m³),Mass concentration (μg/m³)
DateTimeUTC,F1_M11,P_M11,Q1_M11,Q2_M11,T1_M11,T2_M11,T3_M11,T4_M11,T5_M11,U1_M11,ZSPAN_M11,X2_M11,X0_M11,X1_M11
2023-02-27 07:00:00,,0809.4,5.00,0.00,21.5,19.5,00.0,30.5,23.0,10.8,0000.0,0000.76,0001.60,0000.46
2023-02-27 07:01:00,,0809.4,5.00,0.00,21.5,19.4,00.0,30.5,22.9,10.8,0000.0,0000.75,0001.54,0000.46
2023-02-27 07:02:00,,0809.5,5.00,0.00,21.4,19.4,00.0,30.5,22.9,10.5,0000.0,0000.75,0001.52,0000.46
2023-02-27 07:03:00,,0809.5,5.00,0.00,21.4,19.7,00.0,30.4,22.9,10.6,0000.0,0000.73,0001.40,0000.46
2023-02-27 07:04:00,,0809.5,5.02,0.00,21.5,21.1,00.0,30.4,23.3,10.7,0000.0,0000.73,0001.45,0000.44
2023-02-27 07:05:00,,0809.5,4.99,0.00,21.6,22.4,00.0,30.4,23.6,10.7,0000.0,0000.74,0001.92,0000.44
2023-02-27 07:06:00,,0809.5,4.97,0.00,21.7,22.3,00.0,30.5,23.7,10.7,0000.0,0000.73,0001.88,0000.43
2023-02-27 07:07:00,,0809.5,4.99,0.00,21.8,21.7,00.0,30.5,23.6,10.9,0000.0,0000.72,0001.89,0000.43
2023-02-27 07:08:00,,0809.5,4.98,0.00,21.7,21.1,00.0,30.5,23.4,10.8,0000.0,0000.70,0001.85,0000.42
2023-02-27 07:09:00,,0809.6,5.00,0.00,21.7,20.7,00.0,30.5,23.3,10.6,0000.0,0000.69,0001.87,0000.43
2023-02-27 07:10:00,,0809.7,5.00,0.00,21.6,20.4,00.0,30.5,23.2,10.3,0000.0,0000.68,0001.96,0000.42
2023-02-27 07:11:00,,0809.8,5.01,0.00,21.6,20.1,00.0,30.5,23.1,10.6,0000.0,0000.68,0001.96,0000.42
2023-02-27 07:12:00,,0809.7,5.00,0.00,21.5,19.9,00.0,30.5,23.1,10.6,0000.0,0000.67,0001.93,0000.42
2023-02-27 07:13:00,,0809.7,5.01,0.00,21.5,19.7,00.0,30.5,23.0,10.8,0000.0,0000.64,0001.83,0000.42
2023-02-27 07:14:00,,0809.7,5.01,0.00,21.5,19.7,00.0,30.4,23.0,10.6,0000.0,0000.60,0001.75,0000.41
2023-02-27 07:15:00,,0809.5,5.00,0.00,21.4,19.6,00.0,30.4,22.9,10.8,0000.0,0000.57,0001.57,0000.42
2023-02-27 07:16:00,,0809.6,5.01,0.00,21.4,19.5,00.0,30.4,22.9,10.8,0000.0,0000.54,0001.10,0000.42
2023-02-27 07:17:00,,0809.7,5.01,0.00,21.3,19.4,00.0,30.3,22.8,10.6,0000.0,0000.55,0001.12,0000.41
2023-02-27 07:18:00,,0809.7,5.02,0.00,21.3,19.7,00.0,30.3,22.8,10.6,0000.0,0000.55,0001.10,0000.42
2023-02-27 07:19:00,,0809.7,4.98,0.00,21.4,21.0,00.0,30.3,23.2,10.6,0000.0,0000.56,0001.11,0000.42
2023-02-27 07:20:00,,0809.7,5.02,0.00,21.6,22.2,00.0,30.3,23.5,10.8,0000.0,0000.55,0001.04,0000.41
2023-02-27 07:21:00,,0809.8,4.97,0.00,21.6,22.0,00.0,30.3,23.6,10.6,0000.0,0000.54,0000.93,0000.41
2023-02-27 07:22:00,,0809.7,5.01,0.00,21.6,21.3,00.0,30.4,23.4,10.4,0000.0,0000.54,0000.98,0000.40
2023-02-27 07:23:00,,0809.8,5.00,0.00,21.6,20.7,00.0,30.4,23.2,10.2,0000.0,0000.54,0001.03,0000.39
2023-02-27 07:24:00,,0809.8,5.00,0.00,21.5,20.4,00.0,30.4,23.1,10.5,0000.0,0000.52,0001.08,0000.38
2023-02-27 07:25:00,,0809.9,5.00,0.00,21.5,20.1,00.0,30.4,23.0,10.6,0000.0,0000.52,0001.13,0000.37
2023-02-27 07:26:00,,0809.8,5.00,0.00,21.4,19.8,00.0,30.3,22.9,10.8,0000.0,0000.52,0001.33,0000.36
2023-02-27 07:27:00,,0809.8,5.00,0.00,21.4,19.6,00.0,30.3,22.8,10.6,0000.0,0000.52,0001.49,0000.35
2023-02-27 07:28:00,,0809.8,5.00,0.00,21.3,19.5,00.0,30.3,22.8,10.5,0000.0,0000.51,0001.46,0000.35
2023-02-27 07:29:00,,0809.9,5.00,0.00,21.3,19.5,00.0,30.3,22.8,10.4,0000.0,0000.51,0001.49,0000.34
2023-02-27 07:30:00,,0809.9,4.98,0.00,21.3,19.4,00.0,30.2,22.8,10.2,0000.0,0000.52,0001.58,0000.33
2023-02-27 07:31:00,,0810.0,5.00,0.00,21.2,19.3,00.0,30.2,22.7,10.5,0000.0,0000.55,0001.73,0000.34
2023-02-27 07:32:00,,0810.0,4.99,0.00,21.2,19.3,00.0,30.2,22.6,10.7,0000.0,0000.57,0001.74,0000.34
2023-02-27 07:33:00,,0810.0,4.99,0.00,21.2,20.5,00.0,30.1,23.0,10.8,0000.0,0000.58,0001.84,0000.34
2023-02-27 07:34:00,,0810.1,4.98,0.00,21.4,21.7,00.0,30.1,23.3,10.5,0000.0,0000.58,0001.80,0000.35
2023-02-27 07:35:00,,0810.1,5.02,0.00,21.5,22.3,00.0,30.2,23.5,10.1,0000.0,0000.58,0001.69,0000.34
2023-02-27 07:36:00,,0810.1,4.98,0.00,21.5,21.6,00.0,30.2,23.3,10.1,0000.0,0000.59,0001.69,0000.34
2023-02-27 07:37:00,,0810.2,5.00,0.00,21.5,21.0,00.0,30.3,23.2,10.1,0000.0,0000.60,0001.49,0000.35
2023-02-27 07:38:00,,0810.2,5.00,0.00,21.5,20.6,00.0,30.3,23.0,10.3,0000.0,0000.60,0001.37,0000.34
2023-02-27 07:39:00,,0810.2,4.99,0.00,21.4,20.2,00.0,30.3,22.9,10.5,0000.0,0000.58,0001.39,0000.34
2023-02-27 07:40:00,,0810.2,5.00,0.00,21.4,20.0,00.0,30.3,22.9,10.8,0000.0,0000.58,0001.45,0000.34
2023-02-27 07:41:00,,0810.3,5.01,0.00,21.3,19.8,00.0,30.2,22.8,10.5,0000.0,0000.58,0001.44,0000.34
2023-02-27 07:42:00,,0810.3,5.00,0.00,21.3,19.5,00.0,30.2,22.7,10.4,0000.0,0000.54,0001.23,0000.33
2023-02-27 07:43:00,,0810.2,5.00,0.00,21.2,19.4,00.0,30.2,22.7,10.6,0000.0,0000.53,0001.20,0000.33
2023-02-27 07:44:00,,0810.3,5.00,0.00,21.2,19.3,00.0,30.1,22.6,10.5,0000.0,0000.51,0001.08,0000.32
2023-02-27 07:45:00,,0810.3,5.00,0.00,21.1,19.2,00.0,30.1,22.6,10.7,0000.0,0000.49,0001.10,0000.31
2023-02-27 07:46:00,,0810.3,5.00,0.00,21.1,19.4,00.0,30.1,22.6,10.6,0000.0,0000.49,0001.44,0000.31
2023-02-27 07:47:00,,0810.3,4.97,0.00,21.2,20.7,00.0,30.0,23.0,10.7,0000.0,0000.51,0001.48,0000.31
2023-02-27 07:48:00,,0810.3,4.98,0.00,21.4,22.0,00.0,30.1,23.4,10.6,0000.0,0000.50,0001.47,0000.30
2023-02-27 07:49:00,,0810.2,5.01,0.00,21.5,22.3,00.0,30.1,23.5,10.5,0000.0,0000.49,0001.42,0000.30
2023-02-27 07:50:00,,0810.2,4.98,0.00,21.5,21.5,00.0,30.2,23.3,10.4,0000.0,0000.49,0001.39,0000.30
2023-02-27 07:51:00,,0810.2,5.02,0.00,21.5,20.9,00.0,30.2,23.1,10.4,0000.0,0000.50,0001.36,0000.31
2023-02-27 07:52:00,,0810.2,5.02,0.00,21.4,20.5,00.0,30.2,23.0,10.3,0000.0,0000.49,0001.29,0000.30
2023-02-27 07:53:00,,0810.1,4.99,0.00,21.4,20.2,00.0,30.2,23.0,10.2,0000.0,0000.49,0002.10,0000.30
2023-02-27 07:54:00,,0810.1,4.99,0.00,21.4,20.0,00.0,30.2,22.9,10.0,0000.0,0000.51,0002.73,0000.30
2023-02-27 07:55:00,,0810.1,5.01,0.00,21.3,19.8,00.0,30.2,22.9,10.1,0000.0,0000.50,0002.73,0000.29
2023-02-27 07:56:00,,0810.2,5.01,0.00,21.3,19.6,00.0,30.2,22.8,10.2,0000.0,0000.51,0002.74,0000.29
2023-02-27 07:57:00,,0810.3,5.00,0.00,21.2,19.4,00.0,30.1,22.8,10.2,0000.0,0000.51,0002.56,0000.29
2023-02-27 07:58:00,,0810.2,4.99,0.00,21.2,19.3,00.0,30.1,22.7,10.3,0000.0,0000.48,0002.69,0000.29
2023-02-27 07:59:00,,0810.2,5.01,0.00,21.2,19.2,00.0,30.1,22.7,10.4,0000.0,0000.47,0002.68,0000.28
